Tracking 27111 objects as of 29-Mar-2023
HD Live streaming from Space Station
objects crossing your sky now

COSMOS 397 DEB

Track COSMOS 397 DEB now!
10-day predictions


NORAD ID: 5017
Int'l Code: 1971-015L
Perigee: 549.9 km
Apogee: 1,693.0 km
Inclination: 65.7 °
Period: 107.6 minutes
Semi major axis: 7492 km
RCS: 0.3524 m2 (medium)
Launch date: February 25, 1971
Source: Commonwealth of Independent States (former USSR) (CIS)
Launch site: TYURATAM MISSILE AND SPACE COMPLEX (TTMTR)

Note: This is SATELLITE DEBRIS
Your satellite tracking list
Your tracking list is empty




NASA's NSSDC Master Catalog

Two Line Element Set (TLE):
1  5017U 71015L   23087.96131975  .00004197  00000-0  13852-2 0  9990
2  5017  65.7160   1.9879 0762824 296.2398  56.2185 13.38643025481760
Source of the keplerian elements: AFSPC